Weather in Pecky

Czech Republic     50°05′25″N   15°01′48″E
temp.,
°C
wind,
m/s
gust,
m/s
humid.,
%
clouds,
%
prec.,
mm/h
press.,
hPa
HPBL,
m
22 may, sun
sun2223:00+11wnw387514 0.0 1019183
02:00+9w33835 0.0 101938
05:00+8wsw239157 0.0 101934
08:00+12wnw35755 0.0 1018535
11:00+16nw565884 0.0 10171528
14:00+18nnw454814 0.0 10151857
17:00+19n354519 0.0 10141967
20:00+14nne3569100 0.0 101472
23 may, mon
mon2323:00+10e1170100 0.0 101410
02:00+9ese1175100 0.0 101412
05:00+8ese128381 0.0 101412
08:00+13e3466100 0.0 1012272
11:00+18ese4554100 0.0 10111015
14:00+20ese5550100 0.0 10091523
17:00+20ese565547 0.0 10071260
20:00+17se477041 0.0 1005188
24 may, tue
tue2423:00+14ese487699 0.0 1005241
02:00+13sse129180 1.1 100618
05:00+14ssw2496100 0.6 1005102
08:00+16sw358999 0.6 1007302
11:00+19w347540 0.7 1007913
14:00+21wnw775599 1.1 10081519
17:00+19w5666100 0.0 1009917
20:00+16wsw3578100 0.3 1011121
25 may, wed
wed2523:00+14ssw2288100 0.4 101243
02:00+13wsw2291100 0.8 101237
05:00+12nw2597100 2.2 1012186
08:00+12nnw3799100 10.1 1012334
11:00+12nw5898100 7.9 1014393
14:00+13wnw4694100 8.8 1014374
17:00+15w3480100 0.0 1015384
20:00+14wsw34845 0.0 101583
26 may, thu
thu2623:00+11sw411905 0.0 1016197
02:00+11wsw512865 0.0 1017257
05:00+12wsw5117423 0.0 1017328
08:00+14w6107396 0.0 1018714
11:00+17w8115763 0.1 10191894
14:00+17wnw7116380 0.2 10201882
17:00+18nw586176 0.1 10201178
20:00+14nw37727 0.1 1021142